4XCWR LLIB-LLHZ

Flight info

Callsign 4XCWR
Flight time 0h 48m
Altitude 3000
Route AMNON DESHE ZALMN SEGEV EVLYM GILAM LLHA GALIM DAROM HOTRM BOREN FRDIS HADRA SHARO DEROR BAZRA
Aircraft C172/L-SD/C

Departure

Time 2026-04-22 12:10
Airport Rosh Pina Airport (LLIB)

Arrival

Time 2026-04-22 12:59
Airport Herzliya Airport (LLHZ)
Time Latitude Longitude Altitude Speed Heading
2026-04-22 12:04 32.97708 35.57353 947 ft 0 kts 41°
2026-04-22 12:07 32.97709 35.57353 947 ft 2 kts 36°
2026-04-22 12:08 32.97739 35.57331 947 ft 6 kts 327°
2026-04-22 12:08 32.97761 35.57340 951 ft 0 kts 56°
2026-04-22 12:09 32.97767 35.57350 952 ft 8 kts 53°
2026-04-22 12:09 32.97846 35.57358 956 ft 17 kts 330°
2026-04-22 12:10 32.98053 35.57217 956 ft 58 kts 330°
2026-04-22 12:10 32.98485 35.56962 1119 ft 71 kts 335°
2026-04-22 12:10 32.98934 35.56742 1366 ft 68 kts 328°
2026-04-22 12:10 32.99364 35.56427 1509 ft 75 kts 318°
2026-04-22 12:11 32.99866 35.56264 1686 ft 86 kts 15°
2026-04-22 12:11 33.00273 35.56724 2014 ft 78 kts 52°
2026-04-22 12:11 33.00548 35.57331 2210 ft 91 kts 88°
2026-04-22 12:11 33.00171 35.58004 2327 ft 108 kts 146°
2026-04-22 12:12 32.99586 35.58537 2553 ft 104 kts 146°
2026-04-22 12:12 32.99014 35.59025 2753 ft 102 kts 155°
2026-04-22 12:12 32.98383 35.59220 2964 ft 99 kts 183°
2026-04-22 12:12 32.97628 35.59211 2978 ft 114 kts 189°
2026-04-22 12:13 32.96829 35.59135 3014 ft 114 kts 191°
2026-04-22 12:13 32.96039 35.59035 3007 ft 114 kts 193°
2026-04-22 12:13 32.95252 35.58893 3017 ft 116 kts 195°
2026-04-22 12:13 32.94448 35.58693 2944 ft 119 kts 200°
2026-04-22 12:14 32.93659 35.58411 2906 ft 116 kts 205°
2026-04-22 12:14 32.92915 35.58091 2894 ft 111 kts 206°
2026-04-22 12:14 32.92212 35.57772 2948 ft 105 kts 207°
2026-04-22 12:14 32.91537 35.57451 2927 ft 106 kts 207°
2026-04-22 12:15 32.90856 35.57108 2937 ft 106 kts 208°
2026-04-22 12:15 32.90164 35.56771 2963 ft 108 kts 207°
2026-04-22 12:15 32.89500 35.56377 2949 ft 109 kts 214°
2026-04-22 12:15 32.88844 35.55882 2940 ft 109 kts 227°
2026-04-22 12:16 32.88447 35.55133 2955 ft 109 kts 248°
2026-04-22 12:16 32.88149 35.54337 3055 ft 102 kts 247°
2026-04-22 12:16 32.87818 35.53499 2922 ft 113 kts 248°
2026-04-22 12:16 32.87508 35.52653 2939 ft 111 kts 249°
2026-04-22 12:17 32.87226 35.51782 2881 ft 113 kts 254°
2026-04-22 12:17 32.86983 35.50907 2975 ft 110 kts 255°
2026-04-22 12:17 32.86755 35.50035 3034 ft 110 kts 258°
2026-04-22 12:17 32.86526 35.49132 3079 ft 111 kts 259°
2026-04-22 12:18 32.86265 35.48227 3015 ft 118 kts 255°
2026-04-22 12:18 32.85948 35.47319 2994 ft 117 kts 255°
2026-04-22 12:18 32.85650 35.46493 2980 ft 103 kts 254°
2026-04-22 12:18 32.85419 35.45721 3029 ft 98 kts 260°
2026-04-22 12:19 32.85229 35.44935 3019 ft 102 kts 263°
2026-04-22 12:19 32.85173 35.44067 2900 ft 108 kts 277°
2026-04-22 12:19 32.85253 35.43234 2928 ft 98 kts 285°
2026-04-22 12:19 32.85383 35.42446 2912 ft 95 kts 287°
2026-04-22 12:20 32.85548 35.41673 2888 ft 98 kts 284°
2026-04-22 12:20 32.85647 35.40861 2915 ft 100 kts 280°
2026-04-22 12:20 32.85698 35.40052 2899 ft 100 kts 282°
2026-04-22 12:20 32.85799 35.39258 2981 ft 96 kts 281°
2026-04-22 12:21 32.85905 35.38453 2955 ft 101 kts 284°
2026-04-22 12:21 32.86024 35.37626 2982 ft 102 kts 277°
2026-04-22 12:21 32.86014 35.36797 3053 ft 98 kts 270°
2026-04-22 12:21 32.85957 35.35963 2995 ft 101 kts 267°
2026-04-22 12:22 32.85856 35.35143 3047 ft 101 kts 269°
2026-04-22 12:22 32.85767 35.34303 3037 ft 105 kts 268°
2026-04-22 12:22 32.85711 35.33441 2978 ft 107 kts 269°
2026-04-22 12:22 32.85700 35.32552 2976 ft 107 kts 272°
2026-04-22 12:23 32.85703 35.31687 3001 ft 105 kts 272°
2026-04-22 12:23 32.85721 35.30821 3029 ft 105 kts 276°
2026-04-22 12:23 32.85744 35.29946 3003 ft 112 kts 277°
2026-04-22 12:23 32.85794 35.29049 3031 ft 110 kts 279°
2026-04-22 12:24 32.85870 35.28118 2986 ft 112 kts 279°
2026-04-22 12:24 32.85967 35.27196 2943 ft 108 kts 281°
2026-04-22 12:24 32.86077 35.26351 2968 ft 100 kts 283°
2026-04-22 12:24 32.86216 35.25547 2986 ft 102 kts 286°
2026-04-22 12:25 32.86429 35.24690 2958 ft 113 kts 290°
2026-04-22 12:25 32.86676 35.23766 2877 ft 117 kts 289°
2026-04-22 12:25 32.86909 35.22865 2942 ft 115 kts 289°
2026-04-22 12:25 32.87014 35.21925 2980 ft 116 kts 275°
2026-04-22 12:26 32.86975 35.20965 3003 ft 118 kts 261°
2026-04-22 12:26 32.86707 35.20053 3038 ft 119 kts 246°
2026-04-22 12:26 32.86316 35.19150 2985 ft 126 kts 243°
2026-04-22 12:26 32.85887 35.18261 2938 ft 123 kts 244°
2026-04-22 12:27 32.85512 35.17394 3054 ft 110 kts 245°
2026-04-22 12:27 32.85130 35.16615 3120 ft 110 kts 244°
2026-04-22 12:27 32.84766 35.15760 2997 ft 117 kts 250°
2026-04-22 12:27 32.84424 35.14858 2951 ft 120 kts 250°
2026-04-22 12:28 32.84065 35.13964 2930 ft 118 kts 243°
2026-04-22 12:28 32.83589 35.13199 2931 ft 115 kts 233°
2026-04-22 12:28 32.83070 35.12461 2914 ft 117 kts 236°
2026-04-22 12:28 32.82574 35.11723 2837 ft 109 kts 238°
2026-04-22 12:29 32.82201 35.11109 2757 ft 84 kts 242°
2026-04-22 12:29 32.81859 35.10548 2539 ft 83 kts 231°
2026-04-22 12:29 32.81388 35.10103 2282 ft 86 kts 227°
2026-04-22 12:29 32.80926 35.09679 2114 ft 82 kts 231°
2026-04-22 12:30 32.79973 35.08811 1658 ft 89 kts 233°
2026-04-22 12:30 32.79513 35.08329 1437 ft 87 kts 237°
2026-04-22 12:30 32.79110 35.07826 1196 ft 82 kts 243°
2026-04-22 12:31 32.78732 35.07303 1014 ft 80 kts 243°
2026-04-22 12:31 32.78406 35.06783 875 ft 81 kts 243°
2026-04-22 12:31 32.78137 35.06242 819 ft 73 kts 277°
2026-04-22 12:31 32.78194 35.05658 706 ft 67 kts 313°
2026-04-22 12:32 32.78483 35.05306 663 ft 61 kts 314°
2026-04-22 12:32 32.79299 35.04858 453 ft 68 kts 354°
2026-04-22 12:32 32.79755 35.04932 307 ft 69 kts 347°
2026-04-22 12:33 32.80199 35.04730 126 ft 69 kts 337°
2026-04-22 12:33 32.80606 35.04556 29 ft 49 kts 336°
2026-04-22 12:33 32.80814 35.04462 21 ft 22 kts 340°
2026-04-22 12:33 32.81104 35.04335 49 ft 62 kts 337°
2026-04-22 12:34 32.81539 35.04165 280 ft 67 kts 340°
2026-04-22 12:34 32.82004 35.03982 525 ft 72 kts 342°
2026-04-22 12:34 32.82495 35.03803 790 ft 75 kts 341°
2026-04-22 12:34 32.82975 35.03573 964 ft 83 kts 329°
2026-04-22 12:35 32.83428 35.03032 899 ft 98 kts 308°
2026-04-22 12:35 32.83612 35.02276 984 ft 97 kts 286°
2026-04-22 12:35 32.83679 35.01468 970 ft 99 kts 283°
2026-04-22 12:35 32.83741 35.00643 958 ft 101 kts 284°
2026-04-22 12:36 32.83779 34.99814 980 ft 100 kts 282°
2026-04-22 12:36 32.83843 34.98981 1053 ft 98 kts 281°
2026-04-22 12:36 32.83951 34.98179 1239 ft 102 kts 284°
2026-04-22 12:36 32.84026 34.97399 1606 ft 86 kts 269°
2026-04-22 12:37 32.83801 34.96765 1928 ft 83 kts 246°
2026-04-22 12:37 32.83479 34.96058 1922 ft 109 kts 245°
2026-04-22 12:37 32.83010 34.95292 1998 ft 119 kts 230°
2026-04-22 12:37 32.82327 34.94613 1920 ft 136 kts 214°
2026-04-22 12:38 32.81431 34.94287 1995 ft 128 kts 192°
2026-04-22 12:38 32.80541 34.94116 2022 ft 133 kts 191°
2026-04-22 12:38 32.79600 34.93974 2001 ft 135 kts 189°
2026-04-22 12:38 32.78719 34.93790 1985 ft 123 kts 194°
2026-04-22 12:39 32.77902 34.93602 1973 ft 114 kts 192°
2026-04-22 12:39 32.76328 34.93499 1926 ft 117 kts 181°
2026-04-22 12:39 32.75514 34.93637 1893 ft 118 kts 170°
2026-04-22 12:40 32.74725 34.93829 1910 ft 114 kts 168°
2026-04-22 12:40 32.73973 34.94158 1899 ft 115 kts 137°
2026-04-22 12:40 32.73471 34.94836 1971 ft 112 kts 126°
2026-04-22 12:40 32.72995 34.95611 1976 ft 118 kts 120°
2026-04-22 12:41 32.72518 34.96388 1954 ft 116 kts 129°
2026-04-22 12:41 32.71872 34.96932 1955 ft 119 kts 162°
2026-04-22 12:41 32.71050 34.97010 1919 ft 119 kts 188°
2026-04-22 12:41 32.70233 34.96877 1941 ft 117 kts 188°
2026-04-22 12:42 32.69429 34.96750 1938 ft 118 kts 191°
2026-04-22 12:42 32.68610 34.96593 1954 ft 119 kts 190°
2026-04-22 12:42 32.67790 34.96466 2003 ft 118 kts 187°
2026-04-22 12:42 32.66999 34.96289 2038 ft 116 kts 195°
2026-04-22 12:43 32.66186 34.96157 2045 ft 121 kts 185°
2026-04-22 12:43 32.65321 34.96100 2044 ft 122 kts 186°
2026-04-22 12:43 32.64480 34.96033 2011 ft 125 kts 187°
2026-04-22 12:43 32.63623 34.95908 2028 ft 123 kts 190°
2026-04-22 12:44 32.62744 34.95768 1958 ft 131 kts 191°
2026-04-22 12:44 32.61866 34.95589 1987 ft 126 kts 196°
2026-04-22 12:44 32.61045 34.95292 2010 ft 123 kts 200°
2026-04-22 12:44 32.60249 34.94932 1945 ft 122 kts 209°
2026-04-22 12:45 32.59439 34.94622 1945 ft 127 kts 192°
2026-04-22 12:45 32.58610 34.94380 2021 ft 122 kts 199°
2026-04-22 12:45 32.57815 34.94149 2052 ft 119 kts 193°
2026-04-22 12:45 32.56984 34.93934 1946 ft 125 kts 192°
2026-04-22 12:46 32.56143 34.93764 2000 ft 120 kts 193°
2026-04-22 12:46 32.55307 34.93582 1905 ft 125 kts 194°
2026-04-22 12:46 32.54463 34.93518 1947 ft 113 kts 182°
2026-04-22 12:46 32.53691 34.93487 1952 ft 114 kts 183°
2026-04-22 12:47 32.52925 34.93448 1972 ft 109 kts 188°
2026-04-22 12:47 32.52197 34.93206 1983 ft 108 kts 194°
2026-04-22 12:47 32.51468 34.93038 1981 ft 106 kts 191°
2026-04-22 12:47 32.50723 34.92870 1988 ft 109 kts 194°
2026-04-22 12:48 32.49973 34.92686 2047 ft 108 kts 195°
2026-04-22 12:48 32.49220 34.92512 1992 ft 112 kts 192°
2026-04-22 12:48 32.48451 34.92299 1890 ft 112 kts 197°
2026-04-22 12:48 32.47678 34.92117 1879 ft 118 kts 194°
2026-04-22 12:49 32.46847 34.91918 1966 ft 120 kts 195°
2026-04-22 12:49 32.46034 34.91728 2023 ft 125 kts 196°
2026-04-22 12:49 32.45185 34.91498 2003 ft 127 kts 197°
2026-04-22 12:49 32.44332 34.91286 1930 ft 128 kts 194°
2026-04-22 12:50 32.43459 34.91094 1944 ft 125 kts 195°
2026-04-22 12:50 32.42620 34.90921 2003 ft 124 kts 192°
2026-04-22 12:50 32.41734 34.90753 1876 ft 132 kts 193°
2026-04-22 12:50 32.40851 34.90664 1926 ft 126 kts 186°
2026-04-22 12:51 32.39978 34.90646 1983 ft 126 kts 181°
2026-04-22 12:51 32.39087 34.90739 1994 ft 131 kts 177°
2026-04-22 12:51 32.38175 34.90807 1995 ft 129 kts 176°
2026-04-22 12:51 32.37315 34.90881 2138 ft 123 kts 178°
2026-04-22 12:52 32.36461 34.90919 2143 ft 124 kts 179°
2026-04-22 12:52 32.35576 34.90936 2026 ft 130 kts 181°
2026-04-22 12:52 32.34664 34.90898 1888 ft 129 kts 186°
2026-04-22 12:52 32.33833 34.90780 1986 ft 114 kts 191°
2026-04-22 12:53 32.33062 34.90636 1956 ft 111 kts 190°
2026-04-22 12:53 32.32544 34.90541 1944 ft 109 kts 189°
2026-04-22 12:53 32.31795 34.90417 1914 ft 115 kts 192°
2026-04-22 12:53 32.31019 34.90301 1976 ft 112 kts 186°
2026-04-22 12:54 32.30221 34.90227 1950 ft 118 kts 188°
2026-04-22 12:54 32.29391 34.90136 1936 ft 118 kts 191°
2026-04-22 12:54 32.28566 34.90012 1971 ft 122 kts 190°
2026-04-22 12:54 32.27698 34.89778 1982 ft 124 kts 193°
2026-04-22 12:55 32.26863 34.89593 1903 ft 123 kts 191°
2026-04-22 12:55 32.26048 34.89389 1935 ft 116 kts 195°
2026-04-22 12:55 32.25229 34.89203 1936 ft 125 kts 195°
2026-04-22 12:55 32.24392 34.88947 2017 ft 118 kts 197°
2026-04-22 12:56 32.23624 34.88694 2005 ft 113 kts 201°
2026-04-22 12:56 32.22936 34.88308 1977 ft 106 kts 216°
2026-04-22 12:56 32.22330 34.87862 1749 ft 101 kts 215°
2026-04-22 12:56 32.21759 34.87351 1532 ft 102 kts 230°
2026-04-22 12:57 32.21229 34.86777 1359 ft 103 kts 223°
2026-04-22 12:57 32.20663 34.86282 1175 ft 103 kts 225°
2026-04-22 12:57 32.20059 34.85772 908 ft 110 kts 199°
2026-04-22 12:57 32.19342 34.85614 840 ft 102 kts 193°
2026-04-22 12:58 32.18673 34.85479 790 ft 90 kts 193°
2026-04-22 12:58 32.18111 34.85344 590 ft 85 kts 204°
2026-04-22 12:58 32.17645 34.85031 444 ft 70 kts 254°
2026-04-22 12:58 32.17707 34.84509 324 ft 66 kts 298°
2026-04-22 12:59 32.17869 34.83988 183 ft 68 kts 296°
2026-04-22 12:59 32.17996 34.83574 106 ft 39 kts 290°
2026-04-22 12:59 32.18056 34.83358 99 ft 16 kts 276°
2026-04-22 12:59 32.18043 34.83292 99 ft 0 kts 290°
2026-04-22 13:00 32.18037 34.83271 98 ft 5 kts 199°
2026-04-22 13:00 32.18036 34.83271 98 ft 0 kts 198°